Overview Statistics Trail Chart Weather Telemetry Raw packets
 

This is the latest recevied weather packets stored in our database for station/object IZ2XCK-13. If no packets are shown the sender has not sent any weather packets the latest 10 day(s).

<< 25 26 27 28 29 >>
Time Temp. Humidity Pressure Rain* Wind** Luminosity Snow
1787741620 26.11° C 60% 1020.1 hPa - - - -
1787740420 25.56° C 62% 1020.1 hPa - - - -
1787739219 25° C 63% 1020.1 hPa - - - -
1787738019 24.44° C 63% 1020.4 hPa - - - -
1787736819 23.33° C 64% 1020.5 hPa - - - -
1787735618 23.33° C 65% 1020.6 hPa - - - -
1787734418 22.22° C 69% 1020.6 hPa - - - -
1787733218 22.22° C 70% 1020.6 hPa - - - -
1787732017 21.67° C 72% 1020.6 hPa - - - -
1787730817 20.56° C 74% 1020.8 hPa - - - -
1787729617 20.56° C 78% 1020.6 hPa - - - -
1787728416 20° C 79% 1020.7 hPa - - - -
1787727216 20° C 79% 1020.5 hPa - - - -
1787726016 19.44° C 79% 1020.5 hPa - - - -
1787724815 18.89° C 83% 1020.2 hPa - - - -
1787723615 18.89° C 82% 1020.2 hPa - - - -
1787722415 18.89° C 83% 1020 hPa - - - -
1787721214 18.33° C 80% 1019.6 hPa - - - -
1787720014 18.33° C 84% 1019.4 hPa - - - -
1787718814 18.89° C 81% 1019.1 hPa - - - -
1787717614 18.89° C 81% 1019.2 hPa - - - -
1787716413 18.89° C 82% 1019.3 hPa - - - -
1787715213 18.89° C 81% 1019.2 hPa - - - -
1787714013 18.89° C 84% 1019.3 hPa - - - -
1787712812 18.89° C 83% 1019.4 hPa - - - -

* Rain since midnight (hover to see other rain measurements)
** Current wind speed in m/s (hover to see current wind gust speed)